Location: Franzen
(48.6167°N, 15.3833°E)
Time: 09:33:28
(UTC+00:00)

FALCON 9 DEB - Pass Details

Date: 22 April 2021
Orbit: 422 x 435 km, 53.0° (Epoch: 16 May)

Event Time Altitude Azimuth Distance (km) Brightness Sun altitude
Rises 19:25:28 0° 264° (W) 2,386 7.6 -13.2°
Reaches altitude 10° 19:27:37 10° 270° (W) 1,524 6.7 -13.4°
Maximum altitude 19:30:56 48° 346° (NNW) 573 4.1 -13.9°
Drops below altitude 10° 19:34:17 10° 62° (ENE) 1,536 5.7 -14.3°
Enters shadow 19:34:48 - 64° (ENE) 1,740 5.9 -14.4°
